Flag for Brazil Weather past 2 weeks in Campo Grande, Mato Grosso Do Sul, Brazil

Now
70 °F

Scattered showers. Broken clouds.


Feels Like: 70 °F
Forecast: 69 / 75 °F
Wind: 9 mph from Northwest

Location: Campo Grande Aeroporto

Current Time: Dec 22, 2014 at 3:14:08 PM

Latest Report: Dec 22, 2014 at 3:00 PM


Visibility: N/A

Pressure: N/A

Humidity: 100%

Dew point: 70 °F

Location of Campo GrandeLocation

Historic Weather in Campo Grande — Graph

°F

Campo Grande temperature yesterday

Maximum temperature yesterday: 84 °F (at 1:00 PM)
Minimum temperature yesterday: 72 °F (at 3:00 AM)
Average temperature yesterday: 77 °F

Past Weeks' High & Low Weather Summary

 TemperatureHumidityPressure
High90 °F (Dec 15, 1:00 PM)100% (Dec 12, 3:00 AM)29.98 "Hg (Dec 12, 3:00 AM)
Low34 °F (Dec 12, 6:00 AM)18% (Dec 18, 1:00 PM)29.74 "Hg (Dec 20, 8:00 PM)
Average75 °F82%29.86 "Hg
* Reported Dec 7 2:00 PM — Dec 22 2:00 PM, Campo Grande, Weather by CustomWeather, © 2014

Note: Actual official high and low records may vary slightly from our data, if they occured in-between our weather recording intervals... More about our weather records

Advertising

Campo Grande weather history for previous 24 hours

 ConditionsComfort  
Time TempWeatherWind HumidityBarometerVisibility
2:00 PM
Dec 22
34 °FLight rain. Broken clouds.13 mph100%29.92 "Hg2 mi
1:00 PM70 °FLight rain. Broken clouds.17 mph94%N/A4 mi
12:00 PM70 °FLight rain. Broken clouds.20 mph100%N/A4 mi
11:00 AM72 °FLight rain. Broken clouds.23 mph94%N/A4 mi
10:00 AM72 °FLight rain. Broken clouds.28 mph94%N/A4 mi
9:00 AM72 °FLight rain. Partly sunny.18 mph94%N/A4 mi
8:00 AM72 °FLight rain. Broken clouds.14 mph94%N/AN/A
7:00 AM72 °FBroken clouds.15 mph94%29.86 "HgN/A
6:10 AM72 °FBroken clouds.17 mph94%29.83 "HgN/A
6:00 AM72 °FBroken clouds.18 mph94%29.83 "HgN/A
5:00 AM72 °FPartly cloudy.15 mph94%29.83 "HgN/A
4:00 AM72 °FPartly cloudy.16 mph94%29.83 "HgN/A
3:00 AM70 °FPartly cloudy.17 mph100%29.86 "HgN/A
2:00 AMN/ALight rain.21 mphN/AN/AN/A
1:00 AM73 °FLight rain. Partly cloudy.16 mph94%29.86 "HgN/A
12:00 AM73 °FPartly cloudy.12 mph94%29.86 "HgN/A
11:00 PM
Dec 21
77 °FPassing clouds.10 mph83%29.86 "HgN/A
10:00 PM77 °FPassing clouds.13 mph79%29.83 "HgN/A
9:00 PM75 °FPassing clouds.8 mph89%29.80 "HgN/A
8:00 PM75 °FPassing clouds.10 mph83%29.77 "HgN/A
7:00 PM75 °FScattered clouds.14 mph89%29.77 "HgN/A
6:00 PM75 °FScattered showers. Scattered clouds.13 mph94%N/AN/A
5:10 PM84 °FScattered showers. Scattered clouds.18 mph62%29.74 "HgN/A
5:00 PM84 °FScattered showers. Scattered clouds.18 mph62%29.74 "HgN/A
4:00 PM84 °FScattered clouds.23 mph62%29.77 "HgN/A
3:00 PM84 °FPartly sunny.23 mph66%29.77 "HgN/A
Weather by CustomWeather, © 2014

See weather overviewHow to use our weather pages